Printer-friendly version

IAU Minor Planet Center

Minor Planet Center

MPEC 2001-U37: 2001 UE5

The following Minor Planet Electronic Circular may be linked-to from your own Web pages, but must not otherwise be redistributed electronically.


Read MPEC 2001-U36 Read MPEC 2001-U38


M.P.E.C. 2001-U37                                Issued 2001 Oct. 22, 18:29 UT

     The Minor Planet Electronic Circulars contain information on unusual
         minor planets and routine data on comets.  They are published
   on behalf of Commission 20 of the International Astronomical Union by the
          Minor Planet Center, Smithsonian Astrophysical Observatory,
                          Cambridge, MA 02138, U.S.A.

             Prepared using the Tamkin Foundation Computer Network

                              MPC@CFA.HARVARD.EDU
          URL http://cfa-www.harvard.edu/iau/mpc.html  ISSN 1523-6714

                                   2001 UE5

Observations:
     K01U05E* C2001 10 20.09048 22 44 16.06 -21 38 07.2          18.6        704
     K01U05E  C2001 10 20.10684 22 44 19.52 -21 37 13.4          18.8        704
     K01U05E  C2001 10 20.12395 22 44 23.17 -21 36 16.2          19.1        704
     K01U05E  C2001 10 20.14044 22 44 26.59 -21 35 21.0          19.4        704
     K01U05E  C2001 10 20.15663 22 44 29.96 -21 34 26.5          18.7        704
     K01U05E  C2001 10 21.07678 22 47 49.60 -20 43 26.6          18.6        704
     K01U05E  C2001 10 21.09322 22 47 52.97 -20 42 32.8          18.6        704
     K01U05E  C2001 10 21.10864 22 47 56.12 -20 41 41.9          19.2        704
     K01U05E  C2001 10 21.11003 22 47 56.41 -20 41 37.1          18.6        704
     K01U05E  C2001 10 21.12534 22 47 59.51 -20 40 47.0          19.2        704
     K01U05E  C2001 10 21.12672 22 47 59.81 -20 40 42.7          18.8        704
     K01U05E  C2001 10 21.14138 22 48 02.82 -20 39 54.8          18.9        704
     K01U05E  C2001 10 21.14318 22 48 03.14 -20 39 48.6          18.7        704

Observer details:
704 Lincoln Laboratory ETS, New Mexico.  Observers M. Blythe, F. Shelly,
    M. Bezpalko, R. Huber, L. Manguso, S. Adams, J. Piscitelli.  Measurers
    J. Stuart, R. Sayer, J. B. Evans, H. Viggh.  1.0-m f/2.15 reflector + CCD.

Orbital elements:
2001 UE5
Epoch 2001 Oct. 18.0 TT = JDT 2452200.5                 Spahr
M  13.09087              (2000.0)            P               Q
n   0.28177486     Peri.  285.17419     +0.82680588     +0.55560163
a   2.3042763      Node    41.17951     -0.45123889     +0.74829222
e   0.5262331      Incl.    7.65820     -0.33582065     +0.36244391
P   3.50           H   18.3           G   0.15
From 13 observations 2001 Oct. 20-21.

Ephemeris:
2001 UE5                 a,e,i = 2.30, 0.53, 8                   q = 1.0917
Date    TT    R. A. (2000) Decl.     Delta      r     Elong.  Phase     V
2001 10 18    22 36.38   -23 36.9    0.331    1.220   125.9    41.4    17.9
2001 10 28    23 10.36   -14 48.5    0.395    1.274   127.7    38.1    18.3
2001 11 07    23 37.37   -07 45.4    0.477    1.333   126.9    36.5    18.8
2001 11 17    00 00.34   -02 12.0    0.574    1.397   124.5    35.7    19.3
2001 11 27    00 21.06   +02 14.6    0.686    1.463   120.9    35.3    19.8
2001 12 07    00 40.50   +05 52.7    0.811    1.532   116.7    35.1    20.2
2001 12 17    00 59.24   +08 55.9    0.947    1.601   112.0    34.7    20.6
2001 12 27    01 17.68   +11 34.1    1.094    1.671   107.0    34.2    21.0
2002 01 06    01 36.00   +13 53.2    1.250    1.741   101.8    33.6    21.4
2002 01 16    01 54.32   +15 57.2    1.413    1.811    96.5    32.7    21.7
2002 01 26    02 12.73   +17 49.1    1.582    1.880    91.1    31.6    22.0

Timothy B. Spahr             (C) Copyright 2001 MPC           M.P.E.C. 2001-U37

Read MPEC 2001-U36 Read MPEC 2001-U38


Our Web policy. Index to the CBAT/MPC/ICQ pages.


Valid HTML 4.01!